Year,Month,Day,Hour,Minute,Value (Times are PST for temperature in C)
2016,08,20,00,00,20.50
2016,08,20,00,01,20.50
2016,08,20,00,02,20.50
2016,08,20,00,03,20.50
2016,08,20,00,04,20.50
2016,08,20,00,05,20.60
2016,08,20,00,06,20.60
2016,08,20,00,07,20.60
2016,08,20,00,08,20.60
2016,08,20,00,09,20.70
2016,08,20,00,10,20.70
2016,08,20,00,11,20.70
2016,08,20,00,12,20.70
2016,08,20,00,13,20.70
2016,08,20,00,14,20.70
2016,08,20,00,15,20.70
2016,08,20,00,16,20.60
2016,08,20,00,17,20.60
2016,08,20,00,18,20.60
2016,08,20,00,19,20.60
2016,08,20,00,20,20.60
2016,08,20,00,21,20.50
2016,08,20,00,22,20.50
2016,08,20,00,23,20.50
2016,08,20,00,24,20.40
2016,08,20,00,25,20.40
2016,08,20,00,26,20.40
2016,08,20,00,27,20.40
2016,08,20,00,28,20.30
2016,08,20,00,29,20.30
2016,08,20,00,30,20.30
2016,08,20,00,31,20.30
2016,08,20,00,32,20.20
2016,08,20,00,33,20.20
2016,08,20,00,34,20.20
2016,08,20,00,35,20.10
2016,08,20,00,36,20.10
2016,08,20,00,37,20.10
2016,08,20,00,38,20.00
2016,08,20,00,39,20.00
2016,08,20,00,40,19.90
2016,08,20,00,41,19.90
2016,08,20,00,42,19.90
2016,08,20,00,43,19.80
2016,08,20,00,44,19.80
2016,08,20,00,45,19.80
2016,08,20,00,46,19.70
2016,08,20,00,47,19.70
2016,08,20,00,48,19.70
2016,08,20,00,49,19.70
2016,08,20,00,50,19.60
2016,08,20,00,51,19.60
2016,08,20,00,52,19.60
2016,08,20,00,53,19.50
2016,08,20,00,54,19.50
2016,08,20,00,55,19.50
2016,08,20,00,56,19.40
2016,08,20,00,57,19.40
2016,08,20,00,58,19.40
2016,08,20,00,59,19.40
2016,08,20,01,00,19.40
2016,08,20,01,01,19.40
2016,08,20,01,02,19.30
2016,08,20,01,03,19.30
2016,08,20,01,04,19.30
2016,08,20,01,05,19.30
2016,08,20,01,06,19.20
2016,08,20,01,07,19.20
2016,08,20,01,08,19.20
2016,08,20,01,09,19.20
2016,08,20,01,10,19.10
2016,08,20,01,11,19.10
2016,08,20,01,12,19.10
2016,08,20,01,13,19.10
2016,08,20,01,14,19.00
2016,08,20,01,15,19.00
2016,08,20,01,16,19.00
2016,08,20,01,17,18.90
2016,08,20,01,18,18.90
2016,08,20,01,19,18.90
2016,08,20,01,20,18.80
2016,08,20,01,21,18.80
2016,08,20,01,22,18.80
2016,08,20,01,23,18.80
2016,08,20,01,24,18.70
2016,08,20,01,25,18.70
2016,08,20,01,26,18.70
2016,08,20,01,27,18.60
2016,08,20,01,28,18.60
2016,08,20,01,29,18.60
2016,08,20,01,30,18.50
2016,08,20,01,31,18.50
2016,08,20,01,32,18.40
2016,08,20,01,33,18.40
2016,08,20,01,34,18.40
2016,08,20,01,35,18.30
2016,08,20,01,36,18.30
2016,08,20,01,37,18.30
2016,08,20,01,38,18.30
2016,08,20,01,39,18.30
2016,08,20,01,40,18.20
2016,08,20,01,41,18.20
2016,08,20,01,42,18.20
2016,08,20,01,43,18.20
2016,08,20,01,44,18.10
2016,08,20,01,45,18.10
2016,08,20,01,46,18.10
2016,08,20,01,47,18.10
2016,08,20,01,48,18.10
2016,08,20,01,49,18.10
2016,08,20,01,50,18.00
2016,08,20,01,51,18.00
2016,08,20,01,52,17.90
2016,08,20,01,53,17.90
2016,08,20,01,54,17.90
2016,08,20,01,55,17.90
2016,08,20,01,56,17.90
2016,08,20,01,57,17.90
2016,08,20,01,58,17.90
2016,08,20,01,59,17.90
2016,08,20,02,00,17.90
2016,08,20,02,01,17.90
2016,08,20,02,02,17.80
2016,08,20,02,03,17.80
2016,08,20,02,04,17.80
2016,08,20,02,05,17.80
2016,08,20,02,06,17.80
2016,08,20,02,07,17.80
2016,08,20,02,08,17.80
2016,08,20,02,09,17.80
2016,08,20,02,10,17.80
2016,08,20,02,11,17.80
2016,08,20,02,12,17.80
2016,08,20,02,13,17.70
2016,08,20,02,14,17.70
2016,08,20,02,15,17.70
2016,08,20,02,16,17.70
2016,08,20,02,17,17.70
2016,08,20,02,18,17.70
2016,08,20,02,19,17.70
2016,08,20,02,20,17.70
2016,08,20,02,21,17.70
2016,08,20,02,22,17.70
2016,08,20,02,23,17.70
2016,08,20,02,24,17.70
2016,08,20,02,25,17.70
2016,08,20,02,26,17.70
2016,08,20,02,27,17.70
2016,08,20,02,28,17.70
2016,08,20,02,29,17.60
2016,08,20,02,30,17.60
2016,08,20,02,31,17.60
2016,08,20,02,32,17.60
2016,08,20,02,33,17.60
2016,08,20,02,34,17.60
2016,08,20,02,35,17.60
2016,08,20,02,36,17.50
2016,08,20,02,37,17.50
2016,08,20,02,38,17.50
2016,08,20,02,39,17.50
2016,08,20,02,40,17.40
2016,08,20,02,41,17.40
2016,08,20,02,42,17.40
2016,08,20,02,43,17.40
2016,08,20,02,44,17.40
2016,08,20,02,45,17.40
2016,08,20,02,46,17.40
2016,08,20,02,47,17.40
2016,08,20,02,48,17.40
2016,08,20,02,49,17.40
2016,08,20,02,50,17.40
2016,08,20,02,51,17.40
2016,08,20,02,52,17.40
2016,08,20,02,53,17.40
2016,08,20,02,54,17.50
2016,08,20,02,55,17.50
2016,08,20,02,56,17.50
2016,08,20,02,57,17.60
2016,08,20,02,58,17.60
2016,08,20,02,59,17.60
2016,08,20,03,00,17.70
2016,08,20,03,01,17.70
2016,08,20,03,02,17.70
2016,08,20,03,03,17.80
2016,08,20,03,04,17.80
2016,08,20,03,05,17.80
2016,08,20,03,06,17.90
2016,08,20,03,07,17.90
2016,08,20,03,08,17.90
2016,08,20,03,09,17.90
2016,08,20,03,10,17.80
2016,08,20,03,11,17.80
2016,08,20,03,12,17.80
2016,08,20,03,13,17.80
2016,08,20,03,14,17.70
2016,08,20,03,15,17.70
2016,08,20,03,16,17.70
2016,08,20,03,17,17.70
2016,08,20,03,18,17.60
2016,08,20,03,19,17.60
2016,08,20,03,20,17.60
2016,08,20,03,21,17.60
2016,08,20,03,22,17.60
2016,08,20,03,23,17.60
2016,08,20,03,24,17.60
2016,08,20,03,25,17.60
2016,08,20,03,26,17.60
2016,08,20,03,27,17.60
2016,08,20,03,28,17.60
2016,08,20,03,29,17.60
2016,08,20,03,30,17.60
2016,08,20,03,31,17.60
2016,08,20,03,32,17.60
2016,08,20,03,33,17.60
2016,08,20,03,34,17.70
2016,08,20,03,35,17.70
2016,08,20,03,36,17.70
2016,08,20,03,37,17.80
2016,08,20,03,38,17.80
2016,08,20,03,39,17.80
2016,08,20,03,40,17.90
2016,08,20,03,41,17.90
2016,08,20,03,42,17.90
2016,08,20,03,43,18.00
2016,08,20,03,44,18.00
2016,08,20,03,45,18.10
2016,08,20,03,46,18.20
2016,08,20,03,47,18.30
2016,08,20,03,48,18.40
2016,08,20,03,49,18.50
2016,08,20,03,50,18.70
2016,08,20,03,51,18.70
2016,08,20,03,52,18.80
2016,08,20,03,53,18.90
2016,08,20,03,54,19.00
2016,08,20,03,55,19.10
2016,08,20,03,56,19.20
2016,08,20,03,57,19.20
2016,08,20,03,58,19.30
2016,08,20,03,59,19.40
2016,08,20,04,00,19.50
2016,08,20,04,01,19.60
2016,08,20,04,02,19.70
2016,08,20,04,03,19.70
2016,08,20,05,04,18.50
2016,08,20,05,05,18.50
2016,08,20,05,06,18.50
2016,08,20,05,07,18.50
2016,08,20,05,08,18.50
2016,08,20,05,09,18.60
2016,08,20,05,10,18.60
2016,08,20,05,11,18.60
2016,08,20,05,12,18.60
2016,08,20,05,13,18.60
2016,08,20,05,14,18.60
2016,08,20,05,15,18.60
2016,08,20,05,16,18.50
2016,08,20,05,17,18.50
2016,08,20,05,18,18.50
2016,08,20,05,19,18.40
2016,08,20,05,20,18.40
2016,08,20,05,21,18.40
2016,08,20,05,22,18.40
2016,08,20,05,23,18.30
2016,08,20,05,24,18.30
2016,08,20,05,25,18.30
2016,08,20,05,26,18.30
2016,08,20,05,27,18.30
2016,08,20,05,28,18.20
2016,08,20,05,29,18.20
2016,08,20,05,30,18.20
2016,08,20,05,31,18.10
2016,08,20,05,32,18.10
2016,08,20,05,33,18.10
2016,08,20,05,34,18.10
2016,08,20,05,35,18.00
2016,08,20,05,36,18.00
2016,08,20,05,37,17.90
2016,08,20,05,38,17.90
2016,08,20,05,39,17.80
2016,08,20,05,40,17.80
2016,08,20,05,41,17.80
2016,08,20,05,42,17.70
2016,08,20,05,43,17.70
2016,08,20,05,44,17.60
2016,08,20,05,45,17.60
2016,08,20,05,46,17.60
2016,08,20,05,47,17.50
2016,08,20,05,48,17.50
2016,08,20,05,49,17.40
2016,08,20,05,50,17.40
2016,08,20,05,51,17.40
2016,08,20,05,52,17.30
2016,08,20,05,53,17.30
2016,08,20,05,54,17.30
2016,08,20,05,55,17.20
2016,08,20,05,56,17.20
2016,08,20,05,57,17.10
2016,08,20,05,58,17.10
2016,08,20,05,59,17.10
2016,08,20,06,00,17.00
2016,08,20,06,01,17.00
2016,08,20,06,02,16.90
2016,08,20,06,03,16.90
2016,08,20,06,04,16.90
2016,08,20,06,05,16.90
2016,08,20,06,06,16.90
2016,08,20,06,07,16.90
2016,08,20,06,08,16.90
2016,08,20,06,09,16.90
2016,08,20,06,10,16.90
2016,08,20,06,11,16.80
2016,08,20,06,12,16.70
2016,08,20,06,13,16.60
2016,08,20,06,14,16.60
2016,08,20,06,15,16.50
2016,08,20,06,16,16.40
2016,08,20,06,17,16.40
2016,08,20,06,18,16.40
2016,08,20,06,19,16.30
2016,08,20,06,20,16.30
2016,08,20,06,21,16.30
2016,08,20,06,22,16.30
2016,08,20,06,23,16.30
2016,08,20,06,24,16.30
2016,08,20,06,25,16.30
2016,08,20,06,26,16.30
2016,08,20,06,27,16.30
2016,08,20,06,28,16.30
2016,08,20,06,29,16.30
2016,08,20,06,30,16.30
2016,08,20,06,31,16.40
2016,08,20,06,32,16.40
2016,08,20,06,33,16.40
2016,08,20,06,34,16.50
2016,08,20,06,35,16.50
2016,08,20,06,36,16.50
2016,08,20,06,37,16.50
2016,08,20,06,38,16.60
2016,08,20,06,39,16.60
2016,08,20,06,40,16.70
2016,08,20,06,41,16.80
2016,08,20,06,42,16.80
2016,08,20,06,43,16.90
2016,08,20,06,44,16.90
2016,08,20,06,45,17.00
2016,08,20,06,46,17.00
2016,08,20,06,47,17.10
2016,08,20,06,48,17.10
2016,08,20,06,49,17.00
2016,08,20,06,50,17.00
2016,08,20,06,51,16.90
2016,08,20,06,52,16.90
2016,08,20,06,53,16.90
2016,08,20,06,54,16.80
2016,08,20,06,55,16.80
2016,08,20,06,56,16.80
2016,08,20,06,57,16.80
2016,08,20,06,58,16.70
2016,08,20,06,59,16.70
2016,08,20,07,00,16.60
2016,08,20,07,01,16.60
2016,08,20,07,02,16.60
2016,08,20,07,03,16.60
2016,08,20,07,04,16.60
2016,08,20,07,05,16.50
2016,08,20,07,06,16.50
2016,08,20,07,07,16.50
2016,08,20,07,08,16.50
2016,08,20,07,09,16.40
2016,08,20,07,10,16.40
2016,08,20,07,11,16.40
2016,08,20,07,12,16.40
2016,08,20,07,13,16.40
2016,08,20,07,14,16.40
2016,08,20,07,15,16.50
2016,08,20,07,16,16.50
2016,08,20,07,17,16.50
2016,08,20,07,18,16.50
2016,08,20,07,19,16.50
2016,08,20,07,20,16.60
2016,08,20,07,21,16.60
2016,08,20,07,22,16.60
2016,08,20,07,23,16.60
2016,08,20,07,24,16.60
2016,08,20,07,25,16.60
2016,08,20,07,26,16.70
2016,08,20,07,27,16.70
2016,08,20,07,28,16.80
2016,08,20,07,29,16.90
2016,08,20,07,30,17.00
2016,08,20,07,31,17.10
2016,08,20,07,32,17.20
2016,08,20,07,33,17.30
2016,08,20,07,34,17.40
2016,08,20,07,35,17.50
2016,08,20,07,36,17.60
2016,08,20,07,37,17.70
2016,08,20,07,38,17.80
2016,08,20,07,39,17.90
2016,08,20,07,40,18.00
2016,08,20,07,41,18.10
2016,08,20,07,42,18.20
2016,08,20,07,43,18.30
2016,08,20,07,44,18.50
2016,08,20,07,45,18.70
2016,08,20,07,46,18.80
2016,08,20,07,47,18.90
2016,08,20,07,48,19.00
2016,08,20,07,49,19.10
2016,08,20,07,50,19.30
2016,08,20,07,51,19.40
2016,08,20,07,52,19.50
2016,08,20,07,53,19.60
2016,08,20,07,54,19.70
2016,08,20,07,55,19.80
2016,08,20,07,56,19.90
2016,08,20,07,57,20.00
2016,08,20,07,58,20.00
2016,08,20,07,59,20.10
2016,08,20,08,00,20.10
2016,08,20,08,01,20.20
2016,08,20,08,02,20.20
2016,08,20,08,03,20.30
2016,08,20,08,04,20.30
2016,08,20,08,05,20.30
2016,08,20,08,06,20.40
2016,08,20,08,07,20.50
2016,08,20,08,08,20.50
2016,08,20,08,09,20.60
2016,08,20,08,10,20.70
2016,08,20,08,11,20.70
2016,08,20,08,12,20.80
2016,08,20,08,13,20.90
2016,08,20,08,14,21.00
2016,08,20,08,15,21.00
2016,08,20,08,16,21.10
2016,08,20,08,17,21.10
2016,08,20,08,18,21.20
2016,08,20,08,19,21.20
2016,08,20,08,20,21.20
2016,08,20,08,21,21.30
2016,08,20,08,22,21.30
2016,08,20,08,23,21.40
2016,08,20,08,24,21.40
2016,08,20,08,25,21.50
2016,08,20,08,26,21.50
2016,08,20,08,27,21.60
2016,08,20,08,28,21.60
2016,08,20,08,29,21.60
2016,08,20,08,30,21.60
2016,08,20,08,31,21.60
2016,08,20,08,32,21.70
2016,08,20,08,33,21.70
2016,08,20,08,34,21.70
2016,08,20,08,35,21.70
2016,08,20,08,36,21.70
2016,08,20,08,37,21.70
2016,08,20,08,38,21.70
2016,08,20,08,39,21.70
2016,08,20,08,40,21.80
2016,08,20,08,41,21.80
2016,08,20,08,42,21.90
2016,08,20,08,43,21.90
2016,08,20,08,44,21.90
2016,08,20,08,45,22.00
2016,08,20,08,46,22.10
2016,08,20,08,47,22.10
2016,08,20,08,48,22.20
2016,08,20,08,49,22.30
2016,08,20,08,50,22.30
2016,08,20,08,51,22.30
2016,08,20,08,52,22.30
2016,08,20,08,53,22.30
2016,08,20,08,54,22.30
2016,08,20,08,55,22.30
2016,08,20,08,56,22.40
2016,08,20,08,57,22.40
2016,08,20,08,58,22.40
2016,08,20,08,59,22.40
2016,08,20,09,00,22.40
2016,08,20,09,01,22.40
2016,08,20,09,02,22.40
2016,08,20,09,03,22.40
2016,08,20,09,04,22.40
2016,08,20,09,05,22.40
2016,08,20,09,06,22.40
2016,08,20,09,07,22.40
2016,08,20,09,08,22.40
2016,08,20,09,09,22.40
2016,08,20,09,10,22.30
2016,08,20,09,11,22.30
2016,08,20,09,12,22.40
2016,08,20,09,13,22.40
2016,08,20,09,14,22.40
2016,08,20,09,15,22.40
2016,08,20,09,16,22.50
2016,08,20,09,17,22.50
2016,08,20,09,18,22.60
2016,08,20,09,19,22.60
2016,08,20,09,20,22.60
2016,08,20,09,21,22.60
2016,08,20,09,22,22.60
2016,08,20,09,23,22.60
2016,08,20,09,24,22.60
2016,08,20,09,25,22.60
2016,08,20,09,26,22.60
2016,08,20,09,27,22.60
2016,08,20,09,28,22.60
2016,08,20,09,29,22.70
2016,08,20,09,30,22.80
2016,08,20,09,31,22.80
2016,08,20,09,32,22.90
2016,08,20,09,33,22.90
2016,08,20,09,34,22.90
2016,08,20,09,35,22.90
2016,08,20,09,36,23.00
2016,08,20,09,37,23.00
2016,08,20,09,38,23.10
2016,08,20,09,39,23.10
2016,08,20,09,40,23.10
2016,08,20,09,41,23.10
2016,08,20,09,42,23.10
2016,08,20,09,43,23.10
2016,08,20,09,44,23.10
2016,08,20,09,45,23.10
2016,08,20,09,46,23.10
2016,08,20,09,47,23.10
2016,08,20,09,48,23.10
2016,08,20,09,49,23.10
2016,08,20,09,50,23.20
2016,08,20,09,51,23.20
2016,08,20,09,52,23.20
2016,08,20,09,53,23.20
2016,08,20,09,54,23.20
2016,08,20,09,55,23.30
2016,08,20,09,56,23.40
2016,08,20,09,57,23.40
2016,08,20,09,58,23.50
2016,08,20,09,59,23.60
2016,08,20,10,00,23.60
2016,08,20,10,01,23.70
2016,08,20,10,02,23.80
2016,08,20,10,03,23.80
2016,08,20,10,04,23.90
2016,08,20,10,05,24.00
2016,08,20,10,06,24.10
2016,08,20,10,07,24.10
2016,08,20,10,08,24.20
2016,08,20,10,09,24.20
2016,08,20,10,10,24.20
2016,08,20,10,11,24.20
2016,08,20,10,12,24.10
2016,08,20,10,13,24.10
2016,08,20,10,14,24.00
2016,08,20,10,15,23.90
2016,08,20,10,16,23.90
2016,08,20,10,17,23.90
2016,08,20,10,18,23.90
2016,08,20,10,19,23.90
2016,08,20,10,20,23.90
2016,08,20,10,21,23.90
2016,08,20,10,22,23.90
2016,08,20,10,23,23.90
2016,08,20,10,24,23.90
2016,08,20,10,25,24.00
2016,08,20,10,26,24.00
2016,08,20,10,27,24.10
2016,08,20,10,28,24.10
2016,08,20,10,29,24.10
2016,08,20,10,30,24.00
2016,08,20,10,31,24.00
2016,08,20,10,32,24.00
2016,08,20,10,33,24.10
2016,08,20,10,34,24.10
2016,08,20,10,35,24.10
2016,08,20,10,36,24.10
2016,08,20,10,37,24.10
2016,08,20,10,38,24.10
2016,08,20,10,39,24.10
2016,08,20,10,40,24.00
2016,08,20,10,41,24.00
2016,08,20,10,42,24.00
2016,08,20,10,43,24.00
2016,08,20,10,44,24.00
2016,08,20,10,45,23.90
2016,08,20,10,46,23.90
2016,08,20,10,47,23.90
2016,08,20,10,48,24.00
2016,08,20,10,49,24.00
2016,08,20,10,50,24.10
2016,08,20,10,51,24.10
2016,08,20,10,52,24.10
2016,08,20,10,53,24.10
2016,08,20,10,54,24.10
2016,08,20,10,55,24.10
2016,08,20,10,56,24.10
2016,08,20,10,57,24.10
2016,08,20,10,58,24.20
2016,08,20,10,59,24.30
2016,08,20,11,00,24.30
2016,08,20,11,01,24.40
2016,08,20,11,02,24.40
2016,08,20,11,03,24.40
2016,08,20,11,04,24.40
2016,08,20,11,05,24.50
2016,08,20,11,06,24.50
2016,08,20,11,07,24.50
2016,08,20,11,08,24.50
2016,08,20,11,09,24.50
2016,08,20,11,10,24.50
2016,08,20,11,11,24.50
2016,08,20,11,12,24.50
2016,08,20,11,13,24.40
2016,08,20,11,14,24.30
2016,08,20,11,15,24.20
2016,08,20,11,16,24.10
2016,08,20,11,17,24.10
2016,08,20,11,18,24.10
2016,08,20,11,19,24.10
2016,08,20,11,20,24.10
2016,08,20,11,21,24.10
2016,08,20,11,22,24.20
2016,08,20,11,23,24.20
2016,08,20,11,24,24.20
2016,08,20,11,25,24.20
2016,08,20,11,26,24.20
2016,08,20,11,27,24.10
2016,08,20,11,28,24.10
2016,08,20,11,29,24.10
2016,08,20,11,30,24.10
2016,08,20,11,31,24.20
2016,08,20,11,32,24.20
2016,08,20,11,33,24.20
2016,08,20,11,34,24.30
2016,08,20,11,35,24.30
2016,08,20,11,36,24.30
2016,08,20,11,37,24.40
2016,08,20,11,38,24.40
2016,08,20,11,39,24.40
2016,08,20,11,40,24.50
2016,08,20,11,41,24.60
2016,08,20,11,42,24.70
2016,08,20,11,43,24.70
2016,08,20,11,44,24.70
2016,08,20,11,45,24.80
2016,08,20,11,46,24.80
2016,08,20,11,47,24.70
2016,08,20,11,48,24.70
2016,08,20,11,49,24.70
2016,08,20,11,50,24.70
2016,08,20,11,51,24.80
2016,08,20,11,52,24.80
2016,08,20,11,53,24.80
2016,08,20,11,54,24.90
2016,08,20,11,55,24.90
2016,08,20,11,56,24.90
2016,08,20,11,57,24.90
2016,08,20,11,58,24.90
2016,08,20,11,59,25.00
2016,08,20,12,00,25.00
2016,08,20,12,01,25.10
2016,08,20,12,02,25.10
2016,08,20,12,03,25.10
2016,08,20,12,04,25.20
2016,08,20,12,05,25.30
2016,08,20,12,06,25.40
2016,08,20,12,07,25.50
2016,08,20,12,08,25.60
2016,08,20,12,09,25.60
2016,08,20,12,10,25.60
2016,08,20,12,11,25.60
2016,08,20,12,12,25.70
2016,08,20,12,13,25.80
2016,08,20,12,14,25.80
2016,08,20,12,15,25.80
2016,08,20,12,16,25.70
2016,08,20,12,17,25.50
2016,08,20,12,18,25.40
2016,08,20,12,19,25.30
2016,08,20,12,20,25.20
2016,08,20,12,21,25.20
2016,08,20,12,22,25.20
2016,08,20,12,23,25.20
2016,08,20,12,24,25.10
2016,08,20,12,25,25.10
2016,08,20,12,26,25.10
2016,08,20,12,27,25.00
2016,08,20,12,28,25.00
2016,08,20,12,29,25.00
2016,08,20,12,30,25.00
2016,08,20,12,31,24.90
2016,08,20,12,32,25.00
2016,08,20,12,33,25.00
2016,08,20,12,34,25.00
2016,08,20,12,35,25.10
2016,08,20,12,36,25.10
2016,08,20,12,37,25.10
2016,08,20,12,38,25.10
2016,08,20,12,39,25.00
2016,08,20,12,40,25.00
2016,08,20,12,41,24.90
2016,08,20,12,42,25.00
2016,08,20,12,43,25.00
2016,08,20,12,44,25.10
2016,08,20,12,45,25.10
2016,08,20,12,46,25.10
2016,08,20,12,47,25.10
2016,08,20,12,48,25.20
2016,08,20,12,49,25.20
2016,08,20,12,50,25.30
2016,08,20,12,51,25.30
2016,08,20,12,52,25.40
2016,08,20,12,53,25.50
2016,08,20,12,54,25.50
2016,08,20,12,55,25.50
2016,08,20,12,56,25.50
2016,08,20,12,57,25.50
2016,08,20,12,58,25.50
2016,08,20,12,59,25.60
2016,08,20,13,00,25.60
2016,08,20,13,01,25.70
2016,08,20,13,02,25.70
2016,08,20,13,03,25.70
2016,08,20,13,04,25.70
2016,08,20,13,05,25.60
2016,08,20,13,06,25.60
2016,08,20,13,07,25.60
2016,08,20,13,08,25.70
2016,08,20,13,09,25.80
2016,08,20,13,10,25.90
2016,08,20,13,11,26.00
2016,08,20,13,12,26.10
2016,08,20,13,13,26.10
2016,08,20,13,14,26.00
2016,08,20,13,15,26.00
2016,08,20,13,16,25.90
2016,08,20,13,17,25.90
2016,08,20,13,18,25.90
2016,08,20,13,19,26.00
2016,08,20,13,20,26.00
2016,08,20,13,21,26.10
2016,08,20,13,22,26.00
2016,08,20,13,23,26.00
2016,08,20,13,24,26.00
2016,08,20,13,25,26.00
2016,08,20,13,26,25.90
2016,08,20,13,27,25.90
2016,08,20,13,28,25.90
2016,08,20,13,29,25.90
2016,08,20,13,30,25.80
2016,08,20,13,31,25.80
2016,08,20,13,32,25.80
2016,08,20,13,33,25.90
2016,08,20,13,34,25.90
2016,08,20,13,35,25.90
2016,08,20,13,36,25.90
2016,08,20,13,37,25.90
2016,08,20,13,38,25.90
2016,08,20,13,39,26.00
2016,08,20,13,40,26.00
2016,08,20,13,41,26.10
2016,08,20,13,42,26.20
2016,08,20,13,43,26.30
2016,08,20,13,44,26.30
2016,08,20,13,45,26.40
2016,08,20,13,46,26.50
2016,08,20,13,47,26.60
2016,08,20,13,48,26.60
2016,08,20,13,49,26.60
2016,08,20,13,50,26.70
2016,08,20,13,51,26.70
2016,08,20,13,52,26.70
2016,08,20,13,53,26.70
2016,08,20,13,54,26.60
2016,08,20,13,55,26.50
2016,08,20,13,56,26.40
2016,08,20,13,57,26.40
2016,08,20,13,58,26.40
2016,08,20,13,59,26.40
2016,08,20,14,00,26.40
2016,08,20,14,01,26.40
2016,08,20,14,02,26.30
2016,08,20,14,03,26.40
2016,08,20,14,04,26.40
2016,08,20,14,05,26.50
2016,08,20,14,06,26.50
2016,08,20,14,07,26.60
2016,08,20,14,08,26.70
2016,08,20,14,09,26.80
2016,08,20,14,10,26.80
2016,08,20,14,11,26.80
2016,08,20,14,12,26.90
2016,08,20,14,13,27.00
2016,08,20,14,14,27.00
2016,08,20,14,15,27.10
2016,08,20,14,16,27.10
2016,08,20,14,17,27.10
2016,08,20,14,18,27.10
2016,08,20,14,19,27.10
2016,08,20,14,20,27.10
2016,08,20,14,21,27.10
2016,08,20,14,22,27.10
2016,08,20,14,23,27.10
2016,08,20,14,24,27.10
2016,08,20,14,25,27.20
2016,08,20,14,26,27.20
2016,08,20,14,27,27.30
2016,08,20,14,28,27.40
2016,08,20,14,29,27.50
2016,08,20,14,30,27.60
2016,08,20,14,31,27.60
2016,08,20,14,32,27.70
2016,08,20,14,33,27.70
2016,08,20,14,34,27.70
2016,08,20,14,35,27.70
2016,08,20,14,36,27.70
2016,08,20,14,37,27.70
2016,08,20,14,38,27.60
2016,08,20,14,39,27.60
2016,08,20,14,40,27.60
2016,08,20,14,41,27.70
2016,08,20,14,42,27.80
2016,08,20,14,43,27.90
2016,08,20,14,44,28.00
2016,08,20,14,45,28.10
2016,08,20,14,46,28.20
2016,08,20,14,47,28.20
2016,08,20,14,48,28.20
2016,08,20,14,49,28.20
2016,08,20,14,50,28.20
2016,08,20,14,51,28.30
2016,08,20,14,52,28.30
2016,08,20,14,53,28.30
2016,08,20,14,54,28.40
2016,08,20,14,55,28.50
2016,08,20,14,56,28.50
2016,08,20,14,57,28.60
2016,08,20,14,58,28.70
2016,08,20,14,59,28.70
2016,08,20,15,00,28.80
2016,08,20,15,01,28.80
2016,08,20,15,02,28.90
2016,08,20,15,03,28.90
2016,08,20,15,04,29.00
2016,08,20,15,05,29.10
2016,08,20,15,06,29.10
2016,08,20,15,07,29.10
2016,08,20,15,08,29.20
2016,08,20,15,09,29.10
2016,08,20,15,10,29.10
2016,08,20,15,11,29.20
2016,08,20,15,12,29.20
2016,08,20,15,13,29.20
2016,08,20,15,14,29.20
2016,08,20,15,15,29.20
2016,08,20,15,16,29.20
2016,08,20,15,17,29.20
2016,08,20,15,18,29.20
2016,08,20,15,19,29.10
2016,08,20,15,20,29.10
2016,08,20,15,21,29.10
2016,08,20,15,22,29.10
2016,08,20,15,23,29.10
2016,08,20,15,24,29.10
2016,08,20,15,25,29.10
2016,08,20,15,26,29.00
2016,08,20,15,27,28.90
2016,08,20,15,28,28.80
2016,08,20,15,29,28.80
2016,08,20,15,30,28.80
2016,08,20,15,31,28.80
2016,08,20,15,32,28.80
2016,08,20,15,33,28.80
2016,08,20,15,34,28.80
2016,08,20,15,35,28.90
2016,08,20,15,36,28.90
2016,08,20,15,37,29.00
2016,08,20,15,38,28.90
2016,08,20,15,39,28.90
2016,08,20,15,40,28.80
2016,08,20,15,41,28.80
2016,08,20,15,42,28.70
2016,08,20,15,43,28.70
2016,08,20,15,44,28.80
2016,08,20,15,45,28.80
2016,08,20,15,46,28.80
2016,08,20,15,47,28.90
2016,08,20,15,48,28.90
2016,08,20,15,49,29.00
2016,08,20,15,50,29.10
2016,08,20,15,51,29.10
2016,08,20,15,52,29.10
2016,08,20,15,53,29.20
2016,08,20,15,54,29.20
2016,08,20,15,55,29.10
2016,08,20,15,56,29.10
2016,08,20,15,57,29.00
2016,08,20,15,58,28.80
2016,08,20,15,59,28.70
2016,08,20,16,00,28.60
2016,08,20,16,01,28.60
2016,08,20,16,02,28.60
2016,08,20,16,03,28.70
2016,08,20,16,04,28.70
2016,08,20,16,05,28.70
2016,08,20,16,06,28.70
2016,08,20,16,07,28.60
2016,08,20,16,08,28.60
2016,08,20,16,09,28.60
2016,08,20,16,10,28.60
2016,08,20,16,11,28.60
2016,08,20,16,12,28.70
2016,08,20,16,13,28.70
2016,08,20,16,14,28.80
2016,08,20,16,15,28.80
2016,08,20,16,16,28.80
2016,08,20,16,17,28.80
2016,08,20,16,18,28.70
2016,08,20,16,19,28.60
2016,08,20,16,20,28.50
2016,08,20,16,21,28.40
2016,08,20,16,22,28.30
2016,08,20,16,23,28.20
2016,08,20,16,24,28.20
2016,08,20,16,25,28.20
2016,08,20,16,26,28.20
2016,08,20,16,27,28.20
2016,08,20,16,28,28.20
2016,08,20,16,29,28.10
2016,08,20,16,30,28.10
2016,08,20,16,31,28.10
2016,08,20,16,32,28.10
2016,08,20,16,33,28.10
2016,08,20,16,34,28.20
2016,08,20,16,35,28.10
2016,08,20,16,36,28.10
2016,08,20,16,37,28.10
2016,08,20,16,38,28.10
2016,08,20,16,39,28.10
2016,08,20,16,40,28.20
2016,08,20,16,41,28.20
2016,08,20,16,42,28.10
2016,08,20,16,43,28.10
2016,08,20,16,44,28.10
2016,08,20,16,45,28.00
2016,08,20,16,46,28.00
2016,08,20,16,47,27.90
2016,08,20,16,48,27.90
2016,08,20,16,49,27.90
2016,08,20,16,50,27.90
2016,08,20,16,51,27.90
2016,08,20,16,52,27.90
2016,08,20,16,53,27.90
2016,08,20,16,54,27.90
2016,08,20,16,55,27.90
2016,08,20,16,56,28.00
2016,08,20,16,57,28.00
2016,08,20,16,58,28.10
2016,08,20,16,59,28.10
2016,08,20,17,00,28.10
2016,08,20,17,01,28.10
2016,08,20,17,02,28.20
2016,08,20,17,03,28.20
2016,08,20,17,04,28.20
2016,08,20,17,05,28.20
2016,08,20,17,06,28.30
2016,08,20,17,07,28.30
2016,08,20,17,08,28.30
2016,08,20,17,09,28.30
2016,08,20,17,10,28.40
2016,08,20,17,11,28.50
2016,08,20,17,12,28.40
2016,08,20,17,13,28.40
2016,08,20,17,14,28.40
2016,08,20,17,15,28.40
2016,08,20,17,16,28.40
2016,08,20,17,17,28.40
2016,08,20,17,18,28.40
2016,08,20,17,19,28.40
2016,08,20,17,20,28.50
2016,08,20,17,21,28.50
2016,08,20,17,22,28.40
2016,08,20,17,23,28.40
2016,08,20,17,24,28.40
2016,08,20,17,25,28.40
2016,08,20,17,26,28.40
2016,08,20,17,27,28.40
2016,08,20,17,28,28.40
2016,08,20,17,29,28.50
2016,08,20,17,30,28.40
2016,08,20,17,31,28.40
2016,08,20,17,32,28.40
2016,08,20,17,33,28.40
2016,08,20,17,34,28.50
2016,08,20,17,35,28.50
2016,08,20,17,36,28.50
2016,08,20,17,37,28.50
2016,08,20,17,38,28.50
2016,08,20,17,39,28.60
2016,08,20,17,40,28.60
2016,08,20,17,41,28.70
2016,08,20,17,42,28.70
2016,08,20,17,43,28.70
2016,08,20,17,44,28.80
2016,08,20,17,45,28.80
2016,08,20,17,46,28.80
2016,08,20,17,47,28.90
2016,08,20,17,48,28.90
2016,08,20,17,49,29.00
2016,08,20,17,50,29.10
2016,08,20,17,51,29.30
2016,08,20,17,52,29.50
2016,08,20,17,53,29.60
2016,08,20,17,54,29.70
2016,08,20,17,55,29.80
2016,08,20,17,56,29.90
2016,08,20,17,57,30.10
2016,08,20,17,58,30.20
2016,08,20,17,59,30.30
2016,08,20,18,00,30.40
2016,08,20,18,01,30.40
2016,08,20,18,02,30.40
2016,08,20,18,03,30.40
2016,08,20,18,04,30.40
2016,08,20,18,05,30.40
2016,08,20,18,06,30.40
2016,08,20,18,07,30.40
2016,08,20,18,08,30.40
2016,08,20,18,09,30.30
2016,08,20,18,10,30.30
2016,08,20,18,11,30.30
2016,08,20,18,12,30.30
2016,08,20,18,13,30.30
2016,08,20,18,14,30.20
2016,08,20,18,15,30.20
2016,08,20,18,16,30.20
2016,08,20,18,17,30.10
2016,08,20,18,18,30.10
2016,08,20,18,19,30.00